This demonstration page uses our WeatherBlox Daily Observations layout. Learn more.

Left ArrowRight Arrow

Hourly Observations for January 6, 2017

Temp ( °F °C ) Dew Point ( °F °C ) Humidity (%) Winds ( mph kmh ) Pressure ( in mb ) Visibility ( mi km ) Precip ( " mm )
12:58 am 00:58 Mostly Cloudy 1 -17.4 -4 -19.9 81 81 WSW 5 7 30.34 1027 10 16 0.00 0.00
1:00 am 01:00 Partly Cloudy 1 -17 -4 -20 78 78 W 5 7 30.39 1029 10 16 0.00 0.00
1:58 am 01:58 Mostly Clear 1 -17.4 -4 -20.1 80 80 W 6 9 30.32 1027 10 16 0.00 0.00
2:58 am 02:58 Clear -1 -18.3 -5 -20.3 84 84 WNW 3 6 30.34 1027 10 16 0.00 0.00
3:58 am 03:58 Clear -1 -18.2 -5 -20.5 82 82 W 7 11 30.36 1028 10 16 0.00 0.00
4:58 am 04:58 Clear -2 -19 -8 -22 77 77 W 6 9 30.36 1028 10 16 0.00 0.00
5:58 am 05:58 Clear -3 -19.3 -7 -21.5 83 83 Calm 30.36 1028 10 16 0.00 0.00
6:58 am 06:58 Clear -4 -19.9 -8 -22.1 83 83 WNW 3 6 30.39 1029 10 16 0.00 0.00
7:58 am 07:58 Sunny -2 -19.1 -8 -22 78 78 WSW 6 9 30.40 1030 10 16 0.00 0.00
8:58 am 08:58 Sunny 0 -18 -6 -21.3 76 76 W 3 6 30.40 1030 10 16 0.00 0.00
9:58 am 09:58 Sunny 4 -15.4 -3 -19.4 72 72 SW 3 6 30.43 1031 10 16 0.00 0.00
10:58 am 10:58 Sunny 8 -13.1 -2 -18.7 63 63 W 7 11 30.42 1030 10 16 0.00 0.00
11:58 am 11:58 Sunny 11 -11.6 -1 -18.1 59 59 SSW 9 15 30.40 1029 10 16 0.00 0.00
12:58 pm 12:58 Sunny 13 -10.4 0 -17.8 55 55 WSW 7 11 30.37 1029 10 16 0.00 0.00
1:58 pm 13:58 Sunny 15 -9.2 2 -16.8 54 54 SW 8 13 30.37 1029 10 16 0.00 0.00
2:58 pm 14:58 Sunny 16 -8.8 2 -16.5 54 54 WSW 9 15 30.37 1029 10 16 0.00 0.00
3:58 pm 15:58 Sunny 15 -9.2 3 -16.2 57 57 S 10 17 30.38 1029 10 16 0.00 0.00
4:58 pm 16:58 Sunny 14 -9.9 2 -16.6 58 58 SSW 8 13 30.41 1030 10 16 0.00 0.00
5:58 pm 17:58 Clear 12 -11.1 2 -16.9 63 63 SSW 9 15 30.43 1030 10 16 0.00 0.00
6:58 pm 18:58 Clear 8 -13.5 1 -17.2 74 74 S 6 9 30.45 1031 10 16 0.00 0.00
7:58 pm 19:58 Clear 9 -13 1 -17.1 72 72 SSW 6 9 30.47 1032 10 16 0.00 0.00
8:58 pm 20:58 Clear 5 -15.1 0 -17.8 80 80 SE 3 6 30.48 1032 10 16 0.00 0.00
9:58 pm 21:58 Clear 4 -15.4 1 -17.5 84 84 ESE 3 6 30.47 1032 10 16 0.00 0.00
10:58 pm 22:58 Partly Cloudy 2 -16.9 -1 -18.1 91 91 Calm 30.48 1032 10 16 0.00 0.00
11:58 pm 23:58 Partly Cloudy 1 -17 -1 -18.4 89 89 SE 3 6 30.48 1032 10 16 0.00 0.00

Powered by AerisWeather